DW7831 Weather Reports


Display with metric or nautical units.
time (UTC)temp
F
wind
direction
speed
MPH
gust
MPH
rain 1hr
in
rain 24hr
in
rain mn
in
humidity
%
barometer
mb
20260901191503 72 189 0.0 0.0 0.00 0.00 0.09 100 1015.2
20260901190059 72 202 0.0 0.0 0.00 0.00 0.09 100 1015.1
20260901183051 73 202 0.0 0.0 0.00 0.00 0.08 100 1015.0
20260901181543 74 202 0.0 0.0 0.00 0.00 0.07 100 1014.9
20260901180039 75 202 0.0 0.0 0.00 0.00 0.07 5 1014.9
20260901173034 75 202 1.0 0.0 0.00 0.00 0.07 8 1014.7
20260901171530 75 213 1.0 0.0 0.00 0.00 0.07 6 1014.6
20260901170023 75 199 2.0 0.0 0.00 0.00 0.07 100 1014.6
20260901163017 73 203 2.0 0.0 0.00 0.00 0.07 100 1014.7
20260901161513 72 208 2.0 0.0 0.00 0.00 0.07 100 1014.9
20260901160008 72 211 2.0 0.0 0.00 0.00 0.07 100 1015.0
20260901153109 72 213 1.0 0.0 0.00 0.00 0.07 100 1015.3
20260901151556 71 212 0.0 0.0 0.00 0.00 0.07 100 1015.6
20260901150051 70 212 0.0 0.0 0.00 0.00 0.07 100 1015.3
20260901144647 69 212 0.0 0.0 0.00 0.00 0.07 100 1015.3
20260901143052 69 212 0.0 0.0 0.00 0.00 0.07 100 1015.6
20260901141553 68 212 0.0 0.0 0.00 0.00 0.07 100 1015.7
20260901140042 69 212 0.0 0.0 0.00 0.00 0.07 100 1015.6
20260901134635 68 212 1.0 0.0 0.00 0.00 0.07 100 1015.5
20260901133039 69 202 0.0 0.0 0.00 0.00 0.07 100 1015.5
20260901131529 68 202 0.0 0.0 0.00 0.00 0.07 100 1015.7
20260901130026 68 200 1.0 0.0 0.00 0.00 0.07 100 1015.8
20260901124624 68 199 0.0 0.0 0.00 0.00 0.07 100 1015.8
20260901123019 68 199 0.0 0.0 0.00 0.00 0.07 100 1016.2
20260901121509 67 199 0.0 0.0 0.00 0.00 0.07 100 1016.2
20260901120017 67 199 0.0 0.0 0.00 0.00 0.07 100 1016.2
20260901114602 0 0.0 0.0 0.00 0.00 0.07 1016.3
20260901113103 0 0.0 0.0 0.00 0.00 0.07 1016.2
20260901111553 0 0.0 0.0 0.00 0.00 0.07 1016.1
20260901110056 0 0.0 0.0 0.00 0.00 0.07 1016.1
20260901104545 0 0.0 0.0 0.00 0.00 0.07 1016.1
20260901103048 0 0.0 0.0 0.00 0.00 0.07 1016.0
20260901101536 0 0.0 0.0 0.00 0.00 0.07 1016.0
20260901100032 66 199 0.0 0.0 0.00 0.00 0.07 100 1015.8
20260901094529 66 199 1.0 0.0 0.00 0.00 0.07 100 1015.9
20260901093026 66 199 0.0 0.0 0.00 0.00 0.07 100 1015.8
20260901091523 65 199 2.0 0.0 0.00 0.00 0.07 100 1015.8
20260901090018 65 198 0.0 0.0 0.00 0.00 0.06 100 1015.8
20260901084513 65 198 0.0 0.0 0.00 0.00 0.06 100 1015.8
20260901083022 65 198 0.0 0.0 0.00 0.00 0.06 100 1015.8
20260901081510 65 198 0.0 0.0 0.00 0.00 0.06 100 1015.9
20260901080006 64 198 0.0 0.0 0.00 0.00 0.06 100 1016.0
20260901074502 64 198 0.0 0.0 0.00 0.00 0.06 100 1016.2
20260901073056 64 198 0.0 0.0 0.00 0.00 0.06 100 1016.4
20260901071559 64 198 0.0 0.0 0.00 0.00 0.05 100 1016.5
20260901070047 64 198 0.0 0.0 0.00 0.00 0.02 100 1016.6
20260901064543 64 198 0.0 0.0 0.00 0.00 0.02 100 1016.7
20260901063039 64 198 0.0 0.0 0.00 0.00 0.02 100 1016.7
20260901061535 64 198 0.0 0.0 0.00 0.00 0.01 100 1016.9
20260901060031 64 198 0.0 0.0 0.00 0.00 0.01 100 1017.1
20260901054526 64 198 0.0 0.0 0.00 0.00 0.01 100 1017.3
20260901053025 64 198 0.0 0.0 0.00 0.00 0.01 100 1017.4
20260901051521 64 198 0.0 0.0 0.00 0.00 0.01 100 1017.5
20260901050017 64 198 0.0 0.0 0.00 0.00 0.01 100 1017.4
20260901044512 64 198 0.0 0.0 0.00 0.00 0.01 100 1017.5
20260901043007 64 198 0.0 0.0 0.00 0.00 0.01 100 1017.4
20260901041503 64 198 0.0 0.0 0.00 0.00 0.01 100 1017.8
20260901040109 64 198 0.0 0.0 0.00 0.00 0.00 100 1017.8
20260901034602 64 198 0.0 0.0 0.00 0.00 0.04 100 1017.5
20260901033053 64 198 0.0 0.0 0.00 0.00 0.04 100 1017.6
20260901031552 64 198 0.0 0.0 0.00 0.00 0.04 100 1017.5
20260901030044 64 198 0.0 0.0 0.00 0.00 0.04 100 1017.8
20260901024540 64 198 0.0 0.0 0.00 0.00 0.04 100 1018.0
20260901023043 64 198 0.0 0.0 0.00 0.00 0.04 100 1018.3
20260901021535 64 198 0.0 0.0 0.00 0.00 0.04 100 1018.4
20260901020029 64 198 0.0 0.0 0.00 0.00 0.04 100 1018.3
20260901014524 64 198 0.0 0.0 0.00 0.00 0.03 100 1018.3
20260901013021 64 198 0.0 0.0 0.00 0.00 0.03 100 1018.5
20260901011516 64 198 0.0 0.0 0.00 0.00 0.03 100 1018.4
20260901010012 64 198 0.0 0.0 0.00 0.00 0.03 100 1018.2
20260901004508 64 198 0.0 0.0 0.00 0.00 0.03 100 1018.2
20260901003007 64 198 0.0 0.0 0.00 0.00 0.03 100 1018.1
20260901001504 64 198 0.0 0.0 0.00 0.00 0.02 100 1018.2
20260901000104 64 198 0.0 0.0 0.00 0.00 0.02 100 1018.3
20260831234555 64 198 0.0 0.0 0.00 0.00 0.01 100 1018.4
20260831233052 65 198 0.0 0.0 0.00 0.00 0.01 100 1018.4
20260831231549 65 198 0.0 0.0 0.00 0.00 0.01 100 1018.5
20260831230043 65 198 0.0 0.0 0.00 0.00 0.01 100 1018.7
20260831224539 65 198 0.0 0.0 0.00 0.00 0.01 100 1018.8
20260831223037 66 198 0.0 0.0 0.00 0.00 0.01 100 1018.9
20260831221532 66 198 0.0 0.0 0.00 0.00 0.01 100 1018.8
20260831220026 66 198 0.0 0.0 0.00 0.00 0.01 100 1018.8
20260831214525 66 198 0.0 0.0 0.00 0.00 0.01 100 1018.8
20260831213018 66 198 0.0 0.0 0.00 0.00 0.01 100 1018.8
20260831211525 67 198 0.0 0.0 0.00 0.00 0.01 3 1018.8
20260831210010 67 198 0.0 0.0 0.00 0.00 0.01 8 1018.9
20260831204510 67 198 1.0 0.0 0.00 0.00 0.01 14 1019.1
20260831203005 68 199 1.0 0.0 0.00 0.00 0.01 18 1018.9
20260831201557 68 200 0.0 0.0 0.00 0.00 0.01 17 1019.0
20260831200056 68 196 1.0 0.0 0.00 0.00 0.01 12 1019.1
20260831194608 68 196 0.0 0.0 0.00 0.00 0.01 10 1019.1
20260831193051 68 196 0.0 0.0 0.00 0.00 0.01 9 1019.2